Location: ???????
(55.4362°N, 38.1183°E)
Time: 03:32:08
(UTC+00:00)

Cosmos 1340 - Pass Details

Date: 17 June 2021
Orbit: 498 x 504 km, 81.2° (Epoch: 26 July)

Event Time Altitude Azimuth Distance (km) Brightness Sun altitude
Exits shadow 20:31:48 - 222° (SW) 2,528 5.9 -10.2°
Reaches altitude 10° 20:33:57 10° 233° (SW) 1,718 5.1 -10.3°
Maximum altitude 20:37:15 29° 295° (WNW) 963 4.5 -10.4°
Drops below altitude 10° 20:40:36 10° 357° (N) 1,732 6.9 -10.5°
Sets 20:42:58 0° 9° (N) 2,623 7.8 -10.6°
